Miscellaneous Local Product
Issued by NWS Hastings, NE

Home | Current Version | Previous Version | Graphics & Text | Print | Product List | Glossary On
Versions: 1 2 3 4 5 6 7 8 9 10 11 12 13 14 15 16 17 18 19 20 21 22 23 24 25 26 27 28 29 30 31 32 33 34 35 36 37 38 39 40 41 42 43 44 45 46 47 48 49 50
000
AXUS43 KGID 221410
MISGRI

GID CWA HOURLY WEATHER ROUNDUP
NATIONAL WEATHER SERVICE HASTINGS NE
900 AM CDT TUE JUL 22 2014

NOTE: "FAIR" INDICATES FEW OR NO CLOUDS BELOW 12,000 FEET WITH NO
SIGNIFICANT WEATHER AND/OR OBSTRUCTIONS TO VISIBILITY.

...SOUTH CENTRAL NEBRASKA...

CITY           SKY/WX    TMP DP  RH WIND       PRES   REMARKS
GRAND ISLAND   SUNNY     79  64  60 NE9       30.07R
HASTINGS       MOSUNNY   79  63  57 N9        30.07R
KEARNEY        MOSUNNY   79  63  57 NE10      30.09R
ORD            MOSUNNY   75  60  59 E6        30.04F
YORK           SUNNY     77  70  78 NE13      30.04R
AURORA         SUNNY     79  67  65 NE9       30.05R
LEXINGTON      SUNNY     79  62  56 E10       30.08S
HOLDREGE       PTSUNNY   75  64  68 E3        30.10R
HEBRON         SUNNY     83  69  62 W6        30.05R

...NEBRASKA PANHANDLE...

CITY           SKY/WX    TMP DP  RH WIND       PRES   REMARKS
CHADRON        SUNNY     71  62  73 NW6       30.20R
ALLIANCE       SUNNY     73  60  63 NE9       30.21S
SCOTTSBLUFF    SUNNY     74  59  59 E8        30.23S
SIDNEY         SUNNY     73  53  49 NW6       30.25R

...WESTERN AND NORTH CENTRAL NEBRASKA...

CITY           SKY/WX    TMP DP  RH WIND       PRES   REMARKS
VALENTINE      MOSUNNY   72  62  71 NE9       30.15R
AINSWORTH      MOSUNNY   71  63  76 N16G25    30.18R
ONEILL         PTSUNNY   72  61  68 N13       30.11R
BROKEN BOW     MOSUNNY   77  60  55 NE8       30.07F
IMPERIAL       SUNNY     76  59  55 SE8       30.14R
NORTH PLATTE   SUNNY     78  58  49 E15       30.09R
MCCOOK         SUNNY     77  63  61 E15       30.09F

...EASTERN NEBRASKA...

CITY           SKY/WX    TMP DP  RH WIND       PRES   REMARKS
NORFOLK        PTSUNNY   77  62  59 N5        30.03R
SO SIOUX CITY  MOSUNNY   81  66  60 E5        29.97R
TEKAMAH        CLOUDY    81  75  82 N8        29.97F
COLUMBUS       MOSUNNY   79  64  61 N9        30.04R
ALBION         SUNNY     79  60  50 E6        30.05S
OMAHA EPPLEY   PTSUNNY   85  73  67 N9        29.98R HX  91
OFFUTT AFB     PTSUNNY   82  75  78 NW3       29.97S
MILLARD        PTSUNNY   84  74  71 N6        29.98S HX  91
LINCOLN        SUNNY     86  72  62 N7        30.01S HX  92
NEBRASKA CITY  SUNNY     82  72  72 W10       30.00R
BEATRICE       SUNNY     78  71  78 W10       30.03S
FALLS CITY     MOSUNNY   82  75  79 SW6       30.01S

...NORTHERN KANSAS...

CITY           SKY/WX    TMP DP  RH WIND       PRES   REMARKS
GOODLAND       SUNNY     78  59  51 E7        30.15F
HILL CITY      SUNNY     75  64  68 CALM      30.11R
NORTON         SUNNY     75  61  60 CALM      30.11R
PHILLIPSBURG   SUNNY     75  63  64 S5        30.09R
SMITH CENTER   SUNNY     79  63  57 SW8       30.08S
HAYS           SUNNY     77  63  61 S3        30.11R
RUSSELL        SUNNY     79  69  71 S5        30.08S
CONCORDIA      PTSUNNY   81  70  69 W10       30.06R
SALINA         MOSUNNY   83  71  67 SW10      30.05R
TOPEKA         MOSUNNY   82  76  81 SW10      30.02S



USA.gov is the U.S. government's official web portal to all federal, state and local government web resources and services.